Minot AFB, ND

4:18 AM CDT on October 21, 2019 (GMT -0500)
Minot Air Force Base

Weather History for KMIB - August, 2019

Change the Weather History Date:

Sunday, August 11, 2019

  Actual Average Record
Temperature  
Mean Temperature 67 °F -  
Max Temperature 74 °F 79 °F 101 °F (2018)
Min Temperature 60 °F 53 °F 44 °F (2007)
Cooling Degree Days 2    
Growing Degree Days 17 (Base 50)    
Moisture  
Dew Point 58 °F    
Average Humidity 81    
Maximum Humidity 97    
Minimum Humidity 54    
Precipitation  
Precipitation 0.00 in - - ()
Sea Level Pressure  
Sea Level Pressure 30.04 in    
Wind  
Wind Speed 8 mph (ENE)    
Max Wind Speed 16 mph    
Max Gust Speed -    
Visibility 10 miles    
Events      
Averages and records for this station are not official NWS values.
T = Trace of Precipitation, MM = Missing Value Source: NWS Daily Summary

Daily Weather History Graph

Daily Weather History Graph

Search for Another Location

Airport or City:

Astronomy

Aug. 11, 2019 Rise Set
Actual Time 6:33 AM CDT 9:06 PM CDT
Civil Twilight 5:58 AM CDT 9:41 PM CDT
Nautical Twilight 5:13 AM CDT 10:26 PM CDT
Astronomical Twilight 4:21 AM CDT 11:17 PM CDT
Moon 6:59 PM CDT (8/11) 2:44 AM CDT (8/11)
Length of Visible Light 15h 43m
Length of Day
14h 33m
Waxing Gibbous, 87% of the Moon is Illuminated
Aug 11
Waxing Gibbous
Aug 15
Full
Aug 23
Last Quarter
Aug 30
New
Sep 5
First Quarter

Hourly Weather History & Observations

Time (CDT) Temp. Dew Point Humidity Pressure Visibility Wind Dir Wind Speed Gust Speed Precip Events Conditions
12:01 AM 62.6 °F 59.0 °F 88% 30.05 in 10.0 mi North 8.1 mph - N/A   Overcast
12:36 AM 62.6 °F 59.0 °F 88% 30.06 in 10.0 mi NNE 8.1 mph - N/A   Overcast
12:56 AM 61.9 °F 60.1 °F 94% 30.05 in 10.0 mi NNE 4.6 mph - N/A   Mostly Cloudy
1:18 AM 62.6 °F 60.8 °F 94% 30.06 in 10.0 mi North 6.9 mph - N/A   Mostly Cloudy
1:28 AM 62.6 °F 60.8 °F 94% 30.06 in 10.0 mi NNE 8.1 mph - N/A   Overcast
1:43 AM 60.8 °F 59.0 °F 94% 30.05 in 10.0 mi NNE 5.8 mph - N/A   Overcast
1:56 AM 61.7 °F 59.9 °F 94% 30.06 in 10.0 mi NNE 6.9 mph - N/A   Overcast
2:56 AM 62.2 °F 59.9 °F 92% 30.06 in 10.0 mi North 6.9 mph - N/A   Overcast
3:39 AM 60.8 °F 59.0 °F 94% 30.05 in 10.0 mi North 9.2 mph - N/A   Scattered Clouds
3:56 AM 60.8 °F 59.7 °F 96% 30.05 in 10.0 mi North 9.2 mph - N/A   Scattered Clouds
4:51 AM 60.8 °F 59.0 °F 94% 30.06 in 10.0 mi NNE 4.6 mph - N/A   Overcast
4:56 AM 60.3 °F 59.4 °F 97% 30.06 in 10.0 mi NNE 4.6 mph - N/A   Overcast
5:06 AM 60.8 °F 59.0 °F 94% 30.06 in 10.0 mi NNE 4.6 mph - N/A   Overcast
5:56 AM 60.4 °F 59.0 °F 95% 30.07 in 10.0 mi NNE 6.9 mph - N/A   Overcast
6:07 AM 60.8 °F 59.0 °F 94% 30.08 in 10.0 mi NNE 6.9 mph - N/A   Overcast
6:22 AM 60.8 °F 59.0 °F 94% 30.09 in 10.0 mi NNE 5.8 mph - N/A   Overcast
6:47 AM 60.8 °F 59.0 °F 94% 30.09 in 10.0 mi NE 4.6 mph - N/A   Overcast
6:51 AM 60.8 °F 59.0 °F 94% 30.09 in 10.0 mi NE 3.5 mph - N/A   Overcast
6:56 AM 60.3 °F 58.5 °F 94% 30.09 in 10.0 mi NNE 4.6 mph - N/A   Overcast
7:56 AM 60.6 °F 57.9 °F 91% 30.10 in 10.0 mi ENE 5.8 mph - N/A   Overcast
8:56 AM 62.1 °F 56.5 °F 82% 30.10 in 10.0 mi NE 5.8 mph - N/A   Overcast
9:56 AM 63.3 °F 55.2 °F 75% 30.10 in 10.0 mi East 9.2 mph - N/A   Overcast
10:56 AM 66.4 °F 54.7 °F 66% 30.07 in 10.0 mi ENE 11.5 mph - N/A   Partly Cloudy
11:56 AM 68.5 °F 55.9 °F 64% 30.08 in 10.0 mi SE 11.5 mph - N/A   Mostly Cloudy
12:56 PM 70.2 °F 54.7 °F 58% 30.07 in 10.0 mi SE 9.2 mph - N/A   Partly Cloudy
1:56 PM 72.5 °F 55.4 °F 55% 30.06 in 10.0 mi East 9.2 mph - N/A   Clear
2:56 PM 74.5 °F 56.7 °F 54% 30.04 in 10.0 mi ESE 16.1 mph - N/A   Clear
3:56 PM 72.9 °F 57.7 °F 59% 30.04 in 10.0 mi ESE 12.7 mph - N/A   Mostly Cloudy
4:56 PM 71.8 °F 59.4 °F 65% 30.02 in 10.0 mi SE 11.5 mph - N/A   Mostly Cloudy
5:56 PM 70.3 °F 58.8 °F 67% 30.01 in 10.0 mi SE 11.5 mph - N/A   Overcast
6:56 PM 69.4 °F 59.5 °F 71% 30.00 in 10.0 mi SE 6.9 mph - N/A   Scattered Clouds
7:56 PM 69.3 °F 58.6 °F 69% 29.98 in 10.0 mi SE 11.5 mph - N/A   Mostly Cloudy
8:56 PM 68.2 °F 58.8 °F 72% 29.96 in 10.0 mi ESE 11.5 mph - N/A   Mostly Cloudy
9:56 PM 66.6 °F 58.3 °F 75% 29.96 in 10.0 mi ESE 9.2 mph - N/A   Mostly Cloudy
10:56 PM 65.5 °F 57.7 °F 76% 29.96 in 10.0 mi East 11.5 mph - N/A   Overcast
11:01 PM 66.2 °F 57.2 °F 73% 29.96 in 10.0 mi ESE 11.5 mph - N/A   Overcast
11:26 PM 66.2 °F 57.2 °F 73% 29.95 in 10.0 mi East 9.2 mph - N/A   Mostly Cloudy
11:41 PM 66.2 °F 57.2 °F 73% 29.95 in 10.0 mi East 10.4 mph - N/A   Overcast
11:46 PM 66.2 °F 57.2 °F 73% 29.95 in 10.0 mi East 11.5 mph - N/A   Overcast
11:56 PM 65.3 °F 57.6 °F 76% 29.95 in 10.0 mi East 11.5 mph - N/A   Overcast